TimeEDT,TemperatureF,Dew PointF,Humidity,Sea Level PressureIn,VisibilityMPH,Wind Direction,Wind SpeedMPH,Gust SpeedMPH,PrecipitationIn,Events,Conditions,WindDirDegrees,DateUTC
12:15 AM,59.0,57.2,94,30.19,10.0,North,4.6,-,N/A,,Clear,360,2013-05-02 04:15:00
12:35 AM,57.7,57.2,98,30.19,10.0,Calm,Calm,-,N/A,,Clear,0,2013-05-02 04:35:00
12:55 AM,57.7,57.2,98,30.19,10.0,Calm,Calm,-,N/A,,Clear,0,2013-05-02 04:55:00
1:15 AM,57.7,57.4,99,30.19,10.0,Calm,Calm,-,N/A,,Clear,0,2013-05-02 05:15:00
1:35 AM,57.7,57.6,99,30.19,10.0,Calm,Calm,-,N/A,,Clear,0,2013-05-02 05:35:00
1:55 AM,55.4,55.2,99,30.19,10.0,Calm,Calm,-,N/A,,Clear,0,2013-05-02 05:55:00
2:15 AM,55.4,55.4,100,30.19,10.0,Calm,Calm,-,N/A,,Clear,0,2013-05-02 06:15:00
2:35 AM,57.7,57.7,100,30.19,10.0,Calm,Calm,-,N/A,,Clear,0,2013-05-02 06:35:00
2:55 AM,56.5,56.5,100,30.19,10.0,Calm,Calm,-,N/A,,Clear,0,2013-05-02 06:55:00
3:15 AM,55.4,55.4,100,30.19,-9999.0,Calm,Calm,-,N/A,,Unknown,0,2013-05-02 07:15:00
3:35 AM,55.4,55.2,99,30.19,10.0,Calm,Calm,-,N/A,,Clear,0,2013-05-02 07:35:00
3:55 AM,55.4,55.4,100,30.19,10.0,Calm,Calm,-,N/A,,Clear,0,2013-05-02 07:55:00
4:15 AM,55.4,55.4,100,30.20,-9999.0,Calm,Calm,-,N/A,,Unknown,0,2013-05-02 08:15:00
4:35 AM,55.4,55.4,100,30.20,10.0,Calm,Calm,-,N/A,,Clear,0,2013-05-02 08:35:00
4:55 AM,55.4,55.4,100,30.20,10.0,NNE,3.5,-,N/A,,Clear,30,2013-05-02 08:55:00
5:15 AM,54.9,54.9,100,30.20,10.0,Calm,Calm,-,N/A,,Clear,0,2013-05-02 09:15:00
5:35 AM,53.4,53.4,100,30.20,10.0,Calm,Calm,-,N/A,,Clear,0,2013-05-02 09:35:00
5:55 AM,52.7,52.7,100,30.20,10.0,Calm,Calm,-,N/A,,Clear,0,2013-05-02 09:55:00
6:15 AM,52.7,52.7,100,30.21,10.0,Calm,Calm,-,N/A,,Clear,0,2013-05-02 10:15:00
6:35 AM,52.7,52.7,100,30.21,10.0,Calm,Calm,-,N/A,,Clear,0,2013-05-02 10:35:00
6:55 AM,52.7,52.7,100,30.21,10.0,North,3.5,-,N/A,,Clear,10,2013-05-02 10:55:00
7:15 AM,53.4,53.4,100,30.22,10.0,Calm,Calm,-,N/A,,Clear,0,2013-05-02 11:15:00
7:35 AM,55.4,55.4,100,30.22,10.0,Calm,Calm,-,N/A,,Clear,0,2013-05-02 11:35:00
7:55 AM,59.0,58.3,97,30.23,10.0,East,4.6,-,N/A,,Clear,90,2013-05-02 11:55:00
8:15 AM,61.9,55.4,79,30.24,10.0,Calm,Calm,-,N/A,,Clear,0,2013-05-02 12:15:00
8:35 AM,62.6,54.5,75,30.24,10.0,SE,3.5,-,N/A,,Clear,130,2013-05-02 12:35:00
8:55 AM,62.6,54.1,74,30.24,10.0,SE,5.8,-,N/A,,Clear,130,2013-05-02 12:55:00
9:15 AM,62.6,54.1,74,30.25,10.0,SE,6.9,-,N/A,,Clear,140,2013-05-02 13:15:00
9:35 AM,62.6,54.0,73,30.24,10.0,SE,8.1,-,N/A,,Clear,140,2013-05-02 13:35:00
9:55 AM,65.3,56.1,72,30.25,10.0,SSE,6.9,-,N/A,,Clear,150,2013-05-02 13:55:00
10:15 AM,66.2,56.7,71,30.24,10.0,SE,11.5,-,N/A,,Clear,140,2013-05-02 14:15:00
10:35 AM,67.6,57.7,71,30.24,10.0,SSE,10.4,-,N/A,,Clear,150,2013-05-02 14:35:00
10:55 AM,67.6,57.0,69,30.24,10.0,SSE,9.2,-,N/A,,Clear,150,2013-05-02 14:55:00
11:15 AM,67.6,56.3,67,30.23,10.0,SE,9.2,-,N/A,,Clear,140,2013-05-02 15:15:00
11:35 AM,67.6,55.9,66,30.23,10.0,South,5.8,-,N/A,,Clear,170,2013-05-02 15:35:00
11:55 AM,67.6,56.1,67,30.23,10.0,SE,8.1,-,N/A,,Clear,130,2013-05-02 15:55:00
12:15 PM,69.4,57.6,66,30.23,10.0,SE,8.1,-,N/A,,Clear,140,2013-05-02 16:15:00
12:35 PM,72.7,59.2,62,30.22,10.0,SE,6.9,-,N/A,,Scattered Clouds,130,2013-05-02 16:35:00
12:55 PM,72.7,59.4,63,30.21,10.0,South,4.6,-,N/A,,Scattered Clouds,180,2013-05-02 16:55:00
1:15 PM,72.7,58.5,61,30.21,10.0,SE,9.2,-,N/A,,Mostly Cloudy,130,2013-05-02 17:15:00
1:35 PM,72.7,58.6,61,30.20,10.0,SSE,10.4,-,N/A,,Mostly Cloudy,150,2013-05-02 17:35:00
1:55 PM,72.7,59.2,62,30.20,10.0,SE,10.4,-,N/A,,Scattered Clouds,140,2013-05-02 17:55:00
2:15 PM,72.7,59.0,62,30.20,10.0,SE,8.1,-,N/A,,Mostly Cloudy,130,2013-05-02 18:15:00
2:35 PM,72.7,58.6,61,30.19,10.0,SE,10.4,17.3,N/A,,Mostly Cloudy,130,2013-05-02 18:35:00
2:55 PM,72.7,58.3,60,30.19,10.0,SE,4.6,-,N/A,,Overcast,130,2013-05-02 18:55:00
3:15 PM,72.7,58.3,60,30.18,10.0,SSE,8.1,-,N/A,,Overcast,150,2013-05-02 19:15:00
3:35 PM,72.7,58.3,60,30.18,10.0,South,8.1,-,N/A,,Mostly Cloudy,180,2013-05-02 19:35:00
3:55 PM,72.7,58.3,60,30.17,10.0,SE,11.5,16.1,N/A,,Mostly Cloudy,140,2013-05-02 19:55:00
4:15 PM,72.7,57.9,60,30.17,10.0,SE,11.5,-,N/A,,Mostly Cloudy,140,2013-05-02 20:15:00
4:35 PM,72.7,58.5,61,30.16,10.0,SE,10.4,-,N/A,,Overcast,140,2013-05-02 20:35:00
4:55 PM,72.7,58.3,60,30.16,10.0,SSE,8.1,-,N/A,,Overcast,150,2013-05-02 20:55:00
5:15 PM,72.7,57.2,58,30.15,10.0,SE,9.2,-,N/A,,Overcast,140,2013-05-02 21:15:00
5:35 PM,72.7,56.7,57,30.15,10.0,SSE,6.9,-,N/A,,Overcast,150,2013-05-02 21:35:00
5:55 PM,72.7,57.4,59,30.14,10.0,SSE,8.1,-,N/A,,Scattered Clouds,160,2013-05-02 21:55:00
6:15 PM,72.7,57.2,58,30.13,10.0,SE,9.2,-,N/A,,Scattered Clouds,140,2013-05-02 22:15:00
6:35 PM,72.7,57.4,59,30.13,10.0,SE,6.9,-,N/A,,Scattered Clouds,140,2013-05-02 22:35:00
6:55 PM,72.7,57.6,59,30.12,10.0,SE,8.1,-,N/A,,Scattered Clouds,140,2013-05-02 22:55:00
7:15 PM,72.7,58.3,60,30.12,10.0,SSE,5.8,-,N/A,,Clear,150,2013-05-02 23:15:00
7:35 PM,72.7,58.3,60,30.12,10.0,SE,9.2,-,N/A,,Mostly Cloudy,140,2013-05-02 23:35:00
7:55 PM,72.7,59.2,62,30.12,10.0,SE,4.6,-,N/A,,Scattered Clouds,140,2013-05-02 23:55:00
8:15 PM,72.7,59.5,63,30.12,10.0,SE,3.5,-,N/A,,Clear,130,2013-05-03 00:15:00
8:35 PM,70.2,58.1,65,30.12,10.0,Calm,Calm,-,N/A,,Clear,0,2013-05-03 00:35:00
8:55 PM,67.6,56.7,68,30.12,10.0,SE,4.6,-,N/A,,Clear,130,2013-05-03 00:55:00
9:15 PM,67.6,57.6,70,30.13,10.0,Calm,Calm,-,N/A,,Clear,0,2013-05-03 01:15:00
9:35 PM,62.6,59.2,89,30.13,10.0,Calm,Calm,-,N/A,,Clear,0,2013-05-03 01:35:00
9:55 PM,60.3,58.5,94,30.13,10.0,Calm,Calm,-,N/A,,Clear,0,2013-05-03 01:55:00
10:15 PM,61.3,57.7,88,30.13,10.0,Calm,Calm,-,N/A,,Clear,0,2013-05-03 02:15:00
10:35 PM,61.0,57.7,89,30.13,10.0,Calm,Calm,-,N/A,,Clear,0,2013-05-03 02:35:00
10:55 PM,58.3,57.4,97,30.13,10.0,Calm,Calm,-,N/A,,Clear,0,2013-05-03 02:55:00
11:15 PM,57.7,57.6,99,30.13,10.0,Calm,Calm,-,N/A,,Clear,0,2013-05-03 03:15:00
11:35 PM,57.7,57.2,98,30.12,10.0,NNW,3.5,-,N/A,,Clear,340,2013-05-03 03:35:00
11:55 PM,57.7,57.7,100,30.12,10.0,Calm,Calm,-,N/A,,Scattered Clouds,0,2013-05-03 03:55:00